TimeEST,TemperatureF,Dew PointF,Humidity,Sea Level PressureIn,VisibilityMPH,Wind Direction,Wind SpeedMPH,Gust SpeedMPH,PrecipitationIn,Events,Conditions,WindDirDegrees,DateUTC
12:35 AM,71.6,64.4,78,29.78,9.0,South,20.7,40.3,N/A,,Overcast,190,2013-12-22 05:35:00
12:55 AM,69.8,64.4,83,29.78,5.0,South,20.7,32.2,N/A,,Overcast,190,2013-12-22 05:55:00
1:15 AM,69.8,64.4,83,29.79,7.0,SSW,15.0,-,N/A,,Overcast,210,2013-12-22 06:15:00
1:35 AM,62.6,59.0,88,29.81,2.5,West,20.7,-,N/A,,Overcast,270,2013-12-22 06:35:00
1:55 AM,59.0,57.2,94,29.82,-9999.0,WSW,12.7,-,N/A,,Overcast,250,2013-12-22 06:55:00
2:15 AM,57.2,57.2,100,29.86,1.5,WSW,12.7,-,N/A,,Overcast,240,2013-12-22 07:15:00
2:35 AM,57.2,57.2,100,29.84,3.0,WSW,15.0,28.8,N/A,,Overcast,240,2013-12-22 07:35:00
2:55 AM,57.2,55.4,94,29.85,4.0,SW,15.0,23.0,N/A,,Mostly Cloudy,230,2013-12-22 07:55:00
3:15 AM,57.2,55.4,94,29.84,5.0,SW,11.5,-,N/A,,Overcast,230,2013-12-22 08:15:00
3:35 AM,57.2,55.4,94,29.86,8.0,SSW,5.8,-,N/A,,Mostly Cloudy,200,2013-12-22 08:35:00
3:55 AM,57.2,55.4,94,29.86,5.0,SW,9.2,-,N/A,,Overcast,230,2013-12-22 08:55:00
4:15 AM,55.4,53.6,94,29.86,5.0,SSW,4.6,-,N/A,,Mostly Cloudy,200,2013-12-22 09:15:00
4:35 AM,55.4,53.6,94,29.84,6.0,WSW,4.6,-,N/A,,Mostly Cloudy,240,2013-12-22 09:35:00
4:55 AM,55.4,53.6,94,29.85,6.0,SSE,5.8,-,N/A,,Mostly Cloudy,160,2013-12-22 09:55:00
5:15 AM,55.4,53.6,94,29.84,6.0,SE,4.6,-,N/A,,Overcast,140,2013-12-22 10:15:00
5:35 AM,55.4,53.6,94,29.85,7.0,South,4.6,-,N/A,,Mostly Cloudy,170,2013-12-22 10:35:00
5:55 AM,55.4,53.6,94,29.85,8.0,SSW,4.6,-,N/A,,Mostly Cloudy,200,2013-12-22 10:55:00
6:15 AM,55.4,53.6,94,29.91,8.0,SW,8.1,-,N/A,,Mostly Cloudy,220,2013-12-22 11:15:00
6:35 AM,55.4,53.6,94,29.90,4.0,South,3.5,-,N/A,,Overcast,180,2013-12-22 11:35:00
6:55 AM,55.4,53.6,94,29.87,8.0,SE,6.9,-,N/A,,Overcast,140,2013-12-22 11:55:00
7:15 AM,55.4,53.6,94,29.88,10.0,South,4.6,-,N/A,,Mostly Cloudy,180,2013-12-22 12:15:00
7:35 AM,53.6,53.6,100,29.90,9.0,SSE,3.5,-,N/A,,Mostly Cloudy,160,2013-12-22 12:35:00
7:55 AM,53.6,53.6,100,29.90,10.0,Calm,Calm,-,N/A,,Mostly Cloudy,0,2013-12-22 12:55:00
8:15 AM,55.4,53.6,94,29.93,10.0,Calm,Calm,-,N/A,,Overcast,0,2013-12-22 13:15:00
8:35 AM,55.4,53.6,94,29.92,10.0,Calm,Calm,-,N/A,,Overcast,0,2013-12-22 13:35:00
8:55 AM,55.4,53.6,94,29.92,10.0,SSE,4.6,-,N/A,,Overcast,160,2013-12-22 13:55:00
9:15 AM,55.4,53.6,94,29.94,10.0,SSE,3.5,-,N/A,,Overcast,160,2013-12-22 14:15:00
9:35 AM,55.4,53.6,94,29.97,10.0,South,4.6,-,N/A,,Overcast,180,2013-12-22 14:35:00
9:55 AM,55.4,53.6,94,29.96,10.0,SSE,3.5,-,N/A,,Overcast,160,2013-12-22 14:55:00
10:15 AM,55.4,53.6,94,29.96,10.0,Calm,Calm,-,N/A,,Overcast,0,2013-12-22 15:15:00
10:35 AM,57.2,53.6,88,29.98,10.0,South,4.6,-,N/A,,Overcast,180,2013-12-22 15:35:00
10:55 AM,57.2,53.6,88,29.99,10.0,South,3.5,-,N/A,,Overcast,180,2013-12-22 15:55:00
11:15 AM,57.2,53.6,88,29.99,10.0,South,4.6,-,N/A,,Overcast,190,2013-12-22 16:15:00
11:35 AM,57.2,53.6,88,29.98,10.0,South,5.8,-,N/A,,Overcast,190,2013-12-22 16:35:00
11:55 AM,57.2,53.6,88,29.97,10.0,South,8.1,-,N/A,,Overcast,170,2013-12-22 16:55:00
12:15 PM,57.2,53.6,88,29.97,10.0,SSW,5.8,-,N/A,,Overcast,210,2013-12-22 17:15:00
12:35 PM,57.2,53.6,88,29.96,10.0,SSW,4.6,-,N/A,,Overcast,210,2013-12-22 17:35:00
12:55 PM,57.2,53.6,88,29.97,10.0,SW,4.6,-,N/A,,Overcast,230,2013-12-22 17:55:00
1:15 PM,57.2,53.6,88,29.96,10.0,SW,3.5,-,N/A,,Overcast,230,2013-12-22 18:15:00
1:35 PM,57.2,53.6,88,29.96,10.0,WSW,3.5,-,N/A,,Overcast,250,2013-12-22 18:35:00
1:55 PM,57.2,53.6,88,29.97,10.0,West,3.5,-,N/A,,Overcast,260,2013-12-22 18:55:00
2:15 PM,57.2,53.6,88,29.97,10.0,SW,3.5,-,N/A,,Overcast,220,2013-12-22 19:15:00
2:35 PM,57.2,53.6,88,29.96,10.0,SSW,5.8,-,N/A,,Overcast,200,2013-12-22 19:35:00
2:55 PM,57.2,53.6,88,29.96,10.0,South,4.6,-,N/A,,Overcast,190,2013-12-22 19:55:00
3:15 PM,57.2,53.6,88,29.97,10.0,SW,5.8,-,N/A,,Overcast,220,2013-12-22 20:15:00
3:35 PM,57.2,53.6,88,29.98,10.0,South,4.6,-,N/A,,Overcast,180,2013-12-22 20:35:00
3:55 PM,57.2,53.6,88,29.98,10.0,South,3.5,-,N/A,,Overcast,190,2013-12-22 20:55:00
4:15 PM,57.2,53.6,88,29.97,10.0,South,6.9,-,N/A,,Mostly Cloudy,170,2013-12-22 21:15:00
4:35 PM,57.2,53.6,88,29.98,10.0,South,5.8,-,N/A,,Mostly Cloudy,170,2013-12-22 21:35:00
4:55 PM,57.2,53.6,88,29.98,10.0,South,5.8,-,N/A,,Overcast,170,2013-12-22 21:55:00
5:15 PM,57.2,51.8,82,29.99,10.0,South,3.5,-,N/A,,Overcast,190,2013-12-22 22:15:00
5:35 PM,57.2,51.8,82,30.01,10.0,SSW,3.5,-,N/A,,Overcast,210,2013-12-22 22:35:00
5:55 PM,55.4,51.8,88,30.01,10.0,South,5.8,-,N/A,,Overcast,180,2013-12-22 22:55:00
6:15 PM,55.4,51.8,88,30.02,10.0,South,5.8,-,N/A,,Overcast,170,2013-12-22 23:15:00
6:35 PM,55.4,51.8,88,30.03,10.0,SW,3.5,-,N/A,,Overcast,220,2013-12-22 23:35:00
6:55 PM,55.4,51.8,88,30.03,10.0,Calm,Calm,-,N/A,,Overcast,0,2013-12-22 23:55:00
7:15 PM,55.4,51.8,88,30.04,10.0,South,3.5,-,N/A,,Overcast,180,2013-12-23 00:15:00
7:35 PM,55.4,51.8,88,30.03,10.0,SSE,5.8,-,N/A,,Overcast,160,2013-12-23 00:35:00
7:55 PM,55.4,51.8,88,30.04,10.0,SSE,5.8,-,N/A,,Overcast,160,2013-12-23 00:55:00
8:15 PM,55.4,51.8,88,30.03,10.0,South,3.5,-,N/A,,Overcast,170,2013-12-23 01:15:00
8:35 PM,55.4,51.8,88,30.01,10.0,SSE,3.5,-,N/A,,Overcast,160,2013-12-23 01:35:00
8:55 PM,55.4,51.8,88,30.02,10.0,South,3.5,-,N/A,,Overcast,190,2013-12-23 01:55:00
9:15 PM,55.4,51.8,88,30.03,10.0,South,3.5,-,N/A,,Overcast,190,2013-12-23 02:15:00
9:35 PM,55.4,51.8,88,30.03,10.0,Calm,Calm,-,N/A,,Overcast,0,2013-12-23 02:35:00
9:55 PM,55.4,51.8,88,30.06,10.0,SSW,3.5,-,N/A,,Overcast,200,2013-12-23 02:55:00
10:15 PM,55.4,51.8,88,30.08,10.0,SW,4.6,-,N/A,,Overcast,220,2013-12-23 03:15:00
10:35 PM,55.4,51.8,88,30.06,10.0,South,4.6,-,N/A,,Overcast,190,2013-12-23 03:35:00
10:55 PM,55.4,51.8,88,30.06,10.0,Calm,Calm,-,N/A,,Scattered Clouds,0,2013-12-23 03:55:00
11:15 PM,55.4,51.8,88,30.06,10.0,Calm,Calm,-,N/A,,Clear,0,2013-12-23 04:15:00
11:35 PM,55.4,51.8,88,30.06,10.0,Calm,Calm,-,N/A,,Clear,0,2013-12-23 04:35:00
11:55 PM,53.6,51.8,94,30.06,10.0,Calm,Calm,-,N/A,,Clear,0,2013-12-23 04:55:00